Regional Weather Roundup
Issued by NWS Northern Indiana

Home | Current Version | Previous Version | Text Only | Print | Product List | Glossary On
Versions: 1 2 3 4 5 6 7 8 9 10 11 12 13 14 15 16 17 18 19 20 21 22 23 24 25 26 27 28 29 30 31 32 33 34 35 36 37 38 39 40 41 42 43 44 45 46 47 48 49 50
000
ASUS43 KIWX 270710
RWRIWX

KIWX WEATHER ROUNDUP
NATIONAL WEATHER SERVICE NORTHERN INDIANA
200 AM EST THU NOV 27 2014

NOTE: "FAIR" INDICATES FEW OR NO CLOUDS BELOW 12,000 FEET WITH NO
SIGNIFICANT WEATHER AND/OR OBSTRUCTIONS TO VISIBILITY.

* THESE STATIONS ARE NOT UNDER NWS QUALITY CONTROL. THEY ALSO MAY NOT
  REPORT WEATHER SUCH AS PRECIPITATION OR FOG.

INZ001>027-270800-
NORTHERN INDIANA

CITY           SKY/WX    TMP DP  RH WIND       PRES   REMARKS
GARY*          CLOUDY    31  27  83 W7        30.18S HAZE    WCI  24
VALPARAISO     CLOUDY    27  22  81 W7        30.17S WCI  19
MICHIGAN CITY* CLOUDY    28  21  74 SW3       30.17S
LAPORTE*       CLOUDY    29  24  82 W6        30.16S WCI  23
KNOX*          CLOUDY    27  22  83 CALM      30.15F
SOUTH BEND     CLOUDY    28  22  78 SE5       30.14F WCI  23
GOSHEN         CLOUDY    28  21  75 N3        30.13S
MONTICELLO*    MOCLDY    24  21  87 NW7       30.17R WCI  16
LOGANSPORT*    MOCLDY    27  21  80 NW6       30.16R WCI  20
ROCHESTER*     MOCLDY    30  23  74 NW7       30.15S WCI  23
WARSAW*        CLOUDY    28  23  80 NW7       30.14R WCI  21
ANGOLA*        CLOUDY    27  16  63 N6        30.10S WCI  20
FORT WAYNE     CLOUDY    28  22  78 NW7       30.12S WCI  21
HUNTINGTON*    CLOUDY    28  22  81 N3        30.12S
PERU/GRISSOM   CLOUDY    28  23  83 NW7       30.14R WCI  20
MARION*          N/A     28  21  77 N6        30.13R WCI  21

$$
INZ028>050-270800-
CENTRAL INDIANA

CITY           SKY/WX    TMP DP  RH WIND       PRES   REMARKS
LAFAYETTE      PTCLDY    25  19  78 NW6       30.17R WCI  18
KOKOMO*        CLOUDY    28  19  69 N9        30.14R WCI  20
MUNCIE*        CLOUDY    28  22  78 N9        30.10R WCI  19
INDIANAPOLIS   CLOUDY    28  21  75 N10       30.12R WCI  19

$$
MIZ043>046-050>051-056>058-064>065-071>073-077>080-270800-
SOUTHWEST LOWER MICHIGAN

CITY           SKY/WX    TMP DP  RH WIND       PRES   REMARKS
BATTLE CREEK   CLOUDY    30  20  66 N5        30.12S WCI  25
BENTON HARBOR  CLOUDY    27  24  89 CALM      30.16R
COLDWATER*     FLURRIES  29  25  83 N6        30.11S WCI  23
HILLSDALE*     FLURRIES  28  25  89 N7        30.08S WCI  21
HOLLAND        CLOUDY    30  24  78 CALM      30.15S
GRAND RAPIDS   CLOUDY    28  21  75 CALM      30.13F
KALAMAZOO      CLOUDY    29  21  72 NW5       30.13S WCI  24
STURGIS*       CLOUDY    27  23  86 NW5       30.11F WCI  21
THREE RIVERS*  CLOUDY    30  23  76 CALM      30.13S

$$
OHZ001>008-015>018-024>025-270800-
NORTHWEST OHIO

CITY           SKY/WX    TMP DP  RH WIND       PRES   REMARKS
WAUSEON*       CLOUDY    30  25  80 N9        30.09S WCI  22
DEFIANCE       CLOUDY    30  24  78 N8        30.11R WCI  22
FINDLAY        CLOUDY    31  26  82 NW8       30.06S WCI  23
TOLEDO EXPRESS FLURRIES  30  24  78 N9        30.08F WCI  22
TOLEDO METCALF CLOUDY    32  24  72 NW6       30.09S WCI  26
LIMA           CLOUDY    31  25  78 NW8       30.07S WCI  23

$$
AND FOR LAKE MICHIGAN COASTAL AND OPEN LAKE BUOY OBSERVATIONS

STATION/POSITION TEMP    WIND        PRES    VSBY  WAVE
                 AIR SEA DIR/SP/G                  HT/PER
                 (F)     (DEG/KT/KT) (MB)    (MI)  (FT/S)
CALUMET HARBOR    28     280/  7/ 10 1020.6F
MICHIGAN CITY     28     200/  6/  7   N/A
SAINT JOSEPH      29      CALM  /  1 1022.4R
SOUTH LAKE BUOY   32 42  320/ 17/ 21 1021.9R         5/ 5

$$
&&


USA.gov is the U.S. government's official web portal to all federal, state and local government web resources and services.